Flag for Germany Weather past 2 weeks in Koblenz, Rhineland-Palatinate, Germany

Now
59 °F

Scattered clouds.


Feels Like: 60 °F
Forecast: 49 / 71 °F
Wind: 3 mph from West

Location: Buechel

Current Time: Oct 1, 2014 at 11:33:09 AM

Latest Report: Oct 1, 2014 at 10:20 AM


Visibility: 4 mi

Pressure: 30.33 "Hg

Humidity: 88%

Dew point: 55 °F

Location of KoblenzLocation

Historic Weather in Koblenz — Graph

°F

Koblenz temperature yesterday

Maximum temperature yesterday: 64 °F (at 4:20 PM)
Minimum temperature yesterday: 55 °F (at 5:20 AM)
Average temperature yesterday: 59 °F

Past Weeks' High & Low Weather Summary

 TemperatureHumidityPressure
High73 °F (Sep 18, 5:20 PM)100% (Sep 20, 2:20 AM)30.39 "Hg (Sep 20, 2:20 AM)
Low41 °F (Sep 23, 4:20 AM)55% (Sep 25, 3:20 PM)29.86 "Hg (Sep 18, 6:20 AM)
Average57 °F84%30.11 "Hg
* Reported Sep 16 10:20 AM — Oct 1 10:20 AM, Koblenz, Weather by CustomWeather, © 2014

Note: Actual official high and low records may vary slightly from our data, if they occured in-between our weather recording intervals... More about our weather records

Advertising

Koblenz weather history for previous 24 hours

 ConditionsComfort  
Time TempWeatherWind HumidityBarometerVisibility
10:20 AM
Oct 1
59 °FScattered clouds.3 mph88%30.33 "Hg4 mi
9:20 AM54 °FScattered clouds.5 mph94%30.33 "Hg4 mi
9:01 AM54 °FScattered clouds.3 mph94%30.33 "Hg4 mi
8:20 AM54 °FFog.5 mph94%30.33 "Hg2 mi
7:20 AM54 °FFog.5 mph94%30.30 "Hg2 mi
6:20 AM54 °FFog.2 mph94%30.30 "Hg3 mi
5:20 AM55 °FPassing clouds.5 mph88%30.30 "Hg5 mi
4:20 AM55 °FPassing clouds.5 mph94%30.30 "Hg5 mi
3:20 AM55 °FCool.3 mph94%30.33 "Hg4 mi
2:20 AM55 °FCool.5 mph94%30.33 "HgN/A
1:20 AM55 °FCool.2 mph94%30.33 "HgN/A
12:20 AM55 °FCool.2 mph94%30.30 "HgN/A
11:20 PM
Sep 30
57 °FCool.3 mph88%30.33 "HgN/A
10:20 PM57 °FPassing clouds.1 mph88%30.30 "HgN/A
9:20 PM59 °FPassing clouds.5 mph82%30.30 "HgN/A
8:20 PM61 °FPassing clouds.3 mph77%30.30 "HgN/A
7:20 PM61 °FPartly sunny.2 mph83%30.30 "HgN/A
6:20 PM63 °FPartly sunny.3 mph77%30.30 "HgN/A
5:20 PM64 °FBroken clouds.6 mph68%30.30 "HgN/A
4:20 PM64 °FBroken clouds.6 mph73%30.30 "HgN/A
3:20 PM63 °FPartly sunny.6 mph83%30.30 "HgN/A
2:20 PM61 °FBroken clouds.7 mph88%30.30 "HgN/A
1:20 PM61 °FPartly sunny.7 mph88%30.30 "Hg5 mi
12:20 PM61 °FBroken clouds.6 mph88%30.30 "Hg5 mi
11:20 AM59 °FPartly sunny.7 mph88%30.30 "Hg4 mi
Weather by CustomWeather, © 2014

See weather overviewHow to use our weather pages